Content
SEND FEEDBACK

Daily
Averages
Monthly
Summary
United States of America

BUENA VISTA, VIRGINIA


Home > North America > United States > Virginia
Elevation: 84 feet     Latitude: 37 44N     Longitude: 079 21W

WEATHER
 
SELECT A DAY
Number of Records: 211,698;   Date Range: 1/1/95 - 9/3/14
 
SHARE

PRINT THIS DATA

[ ← Previous Day ]
WEATHER ALMANAC - JANUARY 29, 2014
[ Next Day → ]
[ °C ]   °F
Weather ElementAverageHighLow
Temperature16.9 °F25 °F (3:54 pm)9 °F (11:54 pm)
Dewpoint0.6 °F10.9 °F (1:54 am)-7.1 °F (9:54 am)
Humidity54.3 %92 % (2:54 am)26 % (3:54 pm)
Barometer30.29 in30.38 in (11:54 pm)30.20 in (2:54 am)
Wind Speed2.8 mph9.2 mph (3:54 pm)
Weather ElementAverage
Visibility10 mi
Wind DirectionENE (65.7 °)

Weather ElementTotal
Precipitation---
Heating Degree Days48 (Base 65)
Averaged from 23 records on January 29, 2014
WEATHER CONDITIONS BREAKOUT
WIND DIRECTION BREAKOUT
WEATHER BY HOUR - JANUARY 29, 2014
[ °C ]   °F
Local TimeTemperatureDewpointHumidityBarometerVisibilityWind DirectionWind SpeedGust SpeedPrecipitationEventsConditions
1:54 AM14.0 °F10.9 °F88 %30.22 in10.0 miCalmOvercast
2:54 AM12.9 °F10.9 °F92 %30.20 in10.0 miCalmPartly Cloudy
3:54 AM12.9 °F10.0 °F88 %30.21 in10.0 miCalmClear
4:54 AM12.0 °F10.0 °F92 %30.23 in10.0 miCalmClear
5:54 AM12.0 °F10.0 °F92 %30.24 in10.0 miCalmClear
6:54 AM10.0 °F8.1 °F92 %30.26 in10.0 miCalmClear
7:54 AM10.0 °F8.1 °F92 %30.28 in10.0 miCalmClear
8:54 AM16.0 °F3.0 °F57 %30.30 in10.0 miVariable4.6 mphClear
9:54 AM17.1 °F-7.1 °F34 %30.32 in10.0 miVariable6.9 mphClear
10:54 AM19.0 °F-2.0 °F40 %30.34 in10.0 miVariable3.5 mphClear
11:54 AM19.9 °F-2.0 °F38 %30.33 in10.0 miWSW (250°)6.9 mphClear
12:54 PM21.9 °F-2.0 °F35 %30.30 in10.0 miWest (260°)8.1 mphClear
1:54 PM23.0 °F-2.9 °F32 %30.30 in10.0 miWSW (240°)8.1 mphClear
2:54 PM24.1 °F-5.1 °F28 %30.28 in10.0 miVariable6.9 mphClear
3:54 PM25.0 °F-6.0 °F26 %30.29 in10.0 miWest (280°)9.2 mphClear
4:54 PM23.0 °F-6.0 °F28 %30.30 in10.0 miVariable3.5 mphClear
5:54 PM21.0 °F-6.0 °F30 %30.31 in10.0 miCalmClear
6:54 PM21.0 °F-5.1 °F32 %30.32 in10.0 miCalmClear
7:54 PM19.9 °F-4.0 °F35 %30.34 in10.0 miCalmClear
8:54 PM19.0 °F-4.0 °F36 %30.33 in10.0 miWest (280°)3.5 mphClear
9:54 PM17.1 °F-2.9 °F41 %30.34 in10.0 miCalmClear
10:54 PM10.0 °F-2.0 °F58 %30.36 in10.0 miSSW (200°)3.5 mphClear
11:54 PM9.0 °F-0.9 °F64 %30.38 in10.0 miCalmClear
Hourly data recorded from KLYH, located miles away from Buena Vista, Virginia







STORIES FROM OUR PARTNERS